Time,TemperatureF,DewpointF,PressureIn,WindDirection,WindDirectionDegrees,WindSpeedMPH,WindSpeedGustMPH,Humidity,HourlyPrecipIn,Conditions,Clouds,dailyrainin,SoftwareType,DateUTC
2013-08-09 00:02:00,66.9,58.7,29.92,ENE,75,1.0,3.0,75,0.00,,,0.00,Wunderground v.1.12,2013-08-09 04:02:00,
2013-08-09 00:03:00,66.9,58.7,29.92,ENE,75,1.0,1.0,75,0.00,,,0.00,Wunderground v.1.12,2013-08-09 04:03:00,
2013-08-09 00:07:00,66.8,58.6,29.92,ENE,75,0.0,1.0,75,0.00,,,0.00,Wunderground v.1.12,2013-08-09 04:07:00,
2013-08-09 00:09:00,66.8,58.6,29.92,NE,37,3.0,3.0,75,0.00,,,0.00,Wunderground v.1.12,2013-08-09 04:09:00,
2013-08-09 00:12:00,66.6,58.4,29.92,NE,47,0.0,4.0,75,0.00,,,0.00,Wunderground v.1.12,2013-08-09 04:12:00,
2013-08-09 00:18:00,66.4,58.2,29.92,NE,50,0.0,2.0,75,0.00,,,0.00,Wunderground v.1.12,2013-08-09 04:18:00,
2013-08-09 00:24:00,66.1,57.6,29.92,ENE,61,2.0,4.0,74,0.00,,,0.00,Wunderground v.1.12,2013-08-09 04:24:00,
2013-08-09 00:30:00,66.1,57.6,29.92,NE,52,0.0,4.0,74,0.00,,,0.00,Wunderground v.1.12,2013-08-09 04:30:00,
2013-08-09 00:35:00,66.1,57.6,29.92,NE,46,5.0,5.0,74,0.00,,,0.00,Wunderground v.1.12,2013-08-09 04:35:00,
2013-08-09 00:42:00,66.0,57.5,29.92,NE,46,0.0,2.0,74,0.00,,,0.00,Wunderground v.1.12,2013-08-09 04:42:00,
2013-08-09 00:47:00,66.0,57.5,29.92,NE,46,0.0,1.0,74,0.00,,,0.00,Wunderground v.1.12,2013-08-09 04:47:00,
2013-08-09 00:52:00,65.8,57.3,29.92,NE,35,0.0,1.0,74,0.00,,,0.00,Wunderground v.1.12,2013-08-09 04:52:00,
2013-08-09 00:57:00,65.6,57.1,29.92,NE,35,0.0,1.0,74,0.00,,,0.00,Wunderground v.1.12,2013-08-09 04:57:00,
2013-08-09 01:03:00,65.5,57.4,29.92,NE,35,3.0,3.0,75,0.00,,,0.00,Wunderground v.1.12,2013-08-09 05:03:00,
2013-08-09 01:09:00,65.3,57.2,29.91,NE,37,0.0,1.0,75,0.00,,,0.00,Wunderground v.1.12,2013-08-09 05:09:00,
2013-08-09 01:14:00,65.2,56.7,29.91,NE,37,0.0,1.0,74,0.00,,,0.00,Wunderground v.1.12,2013-08-09 05:14:00,
2013-08-09 01:22:00,64.8,56.3,29.91,NE,37,0.0,0.0,74,0.00,,,0.00,Wunderground v.1.12,2013-08-09 05:22:00,
2013-08-09 01:27:00,64.7,56.2,29.91,NE,37,0.0,0.0,74,0.00,,,0.00,Wunderground v.1.12,2013-08-09 05:27:00,
2013-08-09 01:32:00,64.5,56.0,29.91,NE,37,0.0,0.0,74,0.00,,,0.00,Wunderground v.1.12,2013-08-09 05:32:00,
2013-08-09 01:38:00,64.5,56.0,29.91,NE,35,1.0,1.0,74,0.00,,,0.00,Wunderground v.1.12,2013-08-09 05:38:00,
2013-08-09 01:44:00,64.5,56.0,29.91,NE,35,0.0,1.0,74,0.00,,,0.00,Wunderground v.1.12,2013-08-09 05:44:00,
2013-08-09 01:50:00,64.5,56.0,29.91,NE,35,1.0,1.0,74,0.00,,,0.00,Wunderground v.1.12,2013-08-09 05:50:00,
2013-08-09 01:55:00,64.5,56.0,29.91,NE,35,0.0,2.0,74,0.00,,,0.00,Wunderground v.1.12,2013-08-09 05:55:00,
2013-08-09 02:00:00,64.5,55.7,29.91,NNE,29,0.0,3.0,73,0.00,,,0.00,Wunderground v.1.12,2013-08-09 06:00:00,
2013-08-09 02:05:00,64.5,54.9,29.91,NNE,29,3.0,4.0,71,0.00,,,0.00,Wunderground v.1.12,2013-08-09 06:05:00,
2013-08-09 02:10:00,64.5,54.5,29.90,NNE,28,0.0,4.0,70,0.00,,,0.00,Wunderground v.1.12,2013-08-09 06:10:00,
2013-08-09 02:15:00,64.5,54.1,29.90,NNE,28,0.0,4.0,69,0.00,,,0.00,Wunderground v.1.12,2013-08-09 06:15:00,
2013-08-09 02:20:00,64.3,53.9,29.90,NNE,28,0.0,1.0,69,0.00,,,0.00,Wunderground v.1.12,2013-08-09 06:20:00,
2013-08-09 02:25:00,64.3,53.9,29.91,NNE,28,0.0,1.0,69,0.00,,,0.00,Wunderground v.1.12,2013-08-09 06:25:00,
2013-08-09 02:30:00,64.2,53.8,29.91,NNE,28,0.0,2.0,69,0.00,,,0.00,Wunderground v.1.12,2013-08-09 06:30:00,
2013-08-09 02:35:00,64.0,53.6,29.91,NNE,28,0.0,0.0,69,0.00,,,0.00,Wunderground v.1.12,2013-08-09 06:35:00,
2013-08-09 02:40:00,63.9,53.9,29.91,NNE,28,0.0,2.0,70,0.00,,,0.00,Wunderground v.1.12,2013-08-09 06:40:00,
2013-08-09 02:45:00,64.0,54.0,29.91,NNE,25,0.0,4.0,70,0.00,,,0.00,Wunderground v.1.12,2013-08-09 06:45:00,
2013-08-09 02:50:00,64.2,54.6,29.91,NNE,25,0.0,2.0,71,0.00,,,0.00,Wunderground v.1.12,2013-08-09 06:50:00,
2013-08-09 02:55:00,64.2,54.6,29.90,NNE,25,1.0,3.0,71,0.00,,,0.00,Wunderground v.1.12,2013-08-09 06:55:00,
2013-08-09 03:00:00,64.2,55.0,29.90,NNE,21,1.0,4.0,72,0.00,,,0.00,Wunderground v.1.12,2013-08-09 07:00:00,
2013-08-09 03:05:00,64.0,54.4,29.90,NNE,21,0.0,1.0,71,0.00,,,0.00,Wunderground v.1.12,2013-08-09 07:05:00,
2013-08-09 03:10:00,63.9,54.3,29.90,NNE,21,0.0,0.0,71,0.00,,,0.00,Wunderground v.1.12,2013-08-09 07:10:00,
2013-08-09 03:15:00,63.7,54.1,29.90,NNE,21,0.0,1.0,71,0.00,,,0.00,Wunderground v.1.12,2013-08-09 07:15:00,
2013-08-09 03:20:00,63.5,53.9,29.90,NNE,21,0.0,0.0,71,0.00,,,0.00,Wunderground v.1.12,2013-08-09 07:20:00,
2013-08-09 03:25:00,63.4,54.2,29.90,NNE,21,0.0,0.0,72,0.00,,,0.00,Wunderground v.1.12,2013-08-09 07:25:00,
2013-08-09 03:30:00,63.2,54.0,29.90,NNE,21,0.0,2.0,72,0.00,,,0.00,Wunderground v.1.12,2013-08-09 07:30:00,
2013-08-09 03:35:00,63.2,54.0,29.90,NNE,21,0.0,0.0,72,0.00,,,0.00,Wunderground v.1.12,2013-08-09 07:35:00,
2013-08-09 03:40:00,63.1,53.9,29.89,NNE,21,0.0,1.0,72,0.00,,,0.00,Wunderground v.1.12,2013-08-09 07:40:00,
2013-08-09 03:45:00,63.1,53.9,29.89,NNE,21,0.0,0.0,72,0.00,,,0.00,Wunderground v.1.12,2013-08-09 07:45:00,
2013-08-09 03:50:00,62.9,53.7,29.89,NNE,21,0.0,1.0,72,0.00,,,0.00,Wunderground v.1.12,2013-08-09 07:50:00,
2013-08-09 03:55:00,62.9,54.1,29.90,NNE,21,0.0,0.0,73,0.00,,,0.00,Wunderground v.1.12,2013-08-09 07:55:00,
2013-08-09 04:00:00,62.9,54.5,29.90,NNE,21,0.0,0.0,74,0.00,,,0.00,Wunderground v.1.12,2013-08-09 08:00:00,
2013-08-09 04:05:00,62.7,54.3,29.90,NNE,21,0.0,0.0,74,0.00,,,0.00,Wunderground v.1.12,2013-08-09 08:05:00,
2013-08-09 04:10:00,62.6,54.2,29.89,NNE,21,0.0,0.0,74,0.00,,,0.00,Wunderground v.1.12,2013-08-09 08:10:00,
2013-08-09 04:15:00,62.6,54.6,29.89,NNE,21,0.0,0.0,75,0.00,,,0.00,Wunderground v.1.12,2013-08-09 08:15:00,
2013-08-09 04:20:00,62.4,54.4,29.89,NNE,21,0.0,0.0,75,0.00,,,0.00,Wunderground v.1.12,2013-08-09 08:20:00,
2013-08-09 04:25:00,62.4,54.4,29.89,NNE,21,0.0,0.0,75,0.00,,,0.00,Wunderground v.1.12,2013-08-09 08:25:00,
2013-08-09 04:30:00,62.3,54.6,29.89,NNE,21,0.0,0.0,76,0.00,,,0.00,Wunderground v.1.12,2013-08-09 08:30:00,
2013-08-09 04:35:00,62.3,55.0,29.89,NNE,21,0.0,0.0,77,0.00,,,0.00,Wunderground v.1.12,2013-08-09 08:35:00,
2013-08-09 04:42:00,62.1,55.2,29.89,NNE,21,0.0,0.0,78,0.00,,,0.00,Wunderground v.1.12,2013-08-09 08:42:00,
2013-08-09 04:47:00,62.1,55.5,29.89,NNE,21,0.0,0.0,79,0.00,,,0.00,Wunderground v.1.12,2013-08-09 08:47:00,
2013-08-09 04:52:00,62.0,55.8,29.90,NNE,21,1.0,1.0,80,0.00,,,0.00,Wunderground v.1.12,2013-08-09 08:52:00,
2013-08-09 04:58:00,62.0,55.8,29.90,NNE,21,0.0,0.0,80,0.00,,,0.00,Wunderground v.1.12,2013-08-09 08:58:00,
2013-08-09 05:03:00,62.0,56.1,29.90,NNE,21,0.0,0.0,81,0.00,,,0.00,Wunderground v.1.12,2013-08-09 09:03:00,
2013-08-09 05:08:00,61.8,55.9,29.89,NNE,21,0.0,0.0,81,0.00,,,0.00,Wunderground v.1.12,2013-08-09 09:08:00,
2013-08-09 05:13:00,61.6,55.7,29.89,NNE,21,0.0,0.0,81,0.00,,,0.00,Wunderground v.1.12,2013-08-09 09:13:00,
2013-08-09 05:18:00,61.6,56.0,29.89,NNE,21,0.0,0.0,82,0.00,,,0.00,Wunderground v.1.12,2013-08-09 09:18:00,
2013-08-09 05:23:00,61.5,56.0,29.89,NNE,21,0.0,0.0,82,0.00,,,0.00,Wunderground v.1.12,2013-08-09 09:23:00,
2013-08-09 05:28:00,61.3,56.1,29.89,NNE,21,0.0,0.0,83,0.00,,,0.00,Wunderground v.1.12,2013-08-09 09:28:00,
2013-08-09 05:33:00,61.3,56.1,29.89,NNE,21,0.0,0.0,83,0.00,,,0.00,Wunderground v.1.12,2013-08-09 09:33:00,
2013-08-09 05:38:00,61.2,56.3,29.89,NNE,21,0.0,0.0,84,0.00,,,0.00,Wunderground v.1.12,2013-08-09 09:38:00,
2013-08-09 05:43:00,61.2,56.3,29.89,NNE,21,0.0,0.0,84,0.00,,,0.00,Wunderground v.1.12,2013-08-09 09:43:00,
2013-08-09 05:48:00,61.0,56.1,29.89,NNE,21,0.0,0.0,84,0.00,,,0.00,Wunderground v.1.12,2013-08-09 09:48:00,
2013-08-09 05:53:00,61.0,56.5,29.90,NNE,21,1.0,1.0,85,0.00,,,0.00,Wunderground v.1.12,2013-08-09 09:53:00,
2013-08-09 05:58:00,60.9,56.4,29.90,NNE,21,0.0,0.0,85,0.00,,,0.00,Wunderground v.1.12,2013-08-09 09:58:00,
2013-08-09 06:04:00,60.9,56.0,29.90,NNE,21,0.0,0.0,84,0.00,,,0.00,Wunderground v.1.12,2013-08-09 10:04:00,
2013-08-09 06:09:00,60.7,55.8,29.91,NNE,21,0.0,0.0,84,0.00,,,0.00,Wunderground v.1.12,2013-08-09 10:09:00,
2013-08-09 06:14:00,60.5,55.6,29.91,NNE,21,0.0,0.0,84,0.00,,,0.00,Wunderground v.1.12,2013-08-09 10:14:00,
2013-08-09 06:19:00,60.5,55.6,29.91,NNE,21,0.0,0.0,84,0.00,,,0.00,Wunderground v.1.12,2013-08-09 10:19:00,
2013-08-09 06:24:00,60.5,55.3,29.91,NNE,21,0.0,1.0,83,0.00,,,0.00,Wunderground v.1.12,2013-08-09 10:24:00,
2013-08-09 06:29:00,60.5,55.3,29.91,NNE,21,0.0,1.0,83,0.00,,,0.00,Wunderground v.1.12,2013-08-09 10:29:00,
2013-08-09 06:34:00,60.5,55.3,29.91,NNE,21,0.0,0.0,83,0.00,,,0.00,Wunderground v.1.12,2013-08-09 10:34:00,
2013-08-09 06:39:00,60.5,55.0,29.91,NNE,21,0.0,1.0,82,0.00,,,0.00,Wunderground v.1.12,2013-08-09 10:39:00,
2013-08-09 06:44:00,60.5,55.0,29.91,NNE,21,0.0,0.0,82,0.00,,,0.00,Wunderground v.1.12,2013-08-09 10:44:00,
2013-08-09 06:49:00,60.5,55.0,29.91,NNE,21,0.0,0.0,82,0.00,,,0.00,Wunderground v.1.12,2013-08-09 10:49:00,
2013-08-09 06:54:00,60.5,54.6,29.91,NNE,21,0.0,0.0,81,0.00,,,0.00,Wunderground v.1.12,2013-08-09 10:54:00,
2013-08-09 06:59:00,60.4,54.5,29.91,NNE,21,0.0,0.0,81,0.00,,,0.00,Wunderground v.1.12,2013-08-09 10:59:00,
2013-08-09 07:04:00,60.4,54.5,29.91,NNE,21,0.0,0.0,81,0.00,,,0.00,Wunderground v.1.12,2013-08-09 11:04:00,
2013-08-09 07:09:00,60.4,54.5,29.91,NNE,21,0.0,0.0,81,0.00,,,0.00,Wunderground v.1.12,2013-08-09 11:09:00,
2013-08-09 07:14:00,60.4,54.5,29.91,NNE,21,1.0,1.0,81,0.00,,,0.00,Wunderground v.1.12,2013-08-09 11:14:00,
2013-08-09 07:19:00,60.5,54.6,29.91,NNE,21,0.0,0.0,81,0.00,,,0.00,Wunderground v.1.12,2013-08-09 11:19:00,
2013-08-09 07:24:00,60.5,54.6,29.91,NNE,21,0.0,0.0,81,0.00,,,0.00,Wunderground v.1.12,2013-08-09 11:24:00,
2013-08-09 07:29:00,60.7,54.5,29.91,NNE,21,0.0,1.0,80,0.00,,,0.00,Wunderground v.1.12,2013-08-09 11:29:00,
2013-08-09 07:34:00,60.7,54.5,29.91,NNE,21,0.0,0.0,80,0.00,,,0.00,Wunderground v.1.12,2013-08-09 11:34:00,
2013-08-09 07:39:00,60.9,54.7,29.91,NNE,21,0.0,1.0,80,0.00,,,0.00,Wunderground v.1.12,2013-08-09 11:39:00,
2013-08-09 07:44:00,61.0,54.8,29.91,NNE,21,0.0,0.0,80,0.00,,,0.00,Wunderground v.1.12,2013-08-09 11:44:00,
2013-08-09 07:49:00,61.2,54.3,29.91,NNE,21,0.0,0.0,78,0.00,,,0.00,Wunderground v.1.12,2013-08-09 11:49:00,
2013-08-09 07:54:00,61.3,54.4,29.91,NNE,21,0.0,0.0,78,0.00,,,0.00,Wunderground v.1.12,2013-08-09 11:54:00,
2013-08-09 07:59:00,61.5,54.6,29.91,NNE,21,0.0,0.0,78,0.00,,,0.00,Wunderground v.1.12,2013-08-09 11:59:00,
2013-08-09 08:04:00,61.6,54.7,29.91,NNE,21,0.0,1.0,78,0.00,,,0.00,Wunderground v.1.12,2013-08-09 12:04:00,
2013-08-09 08:09:00,62.0,55.1,29.91,NNE,21,0.0,0.0,78,0.00,,,0.00,Wunderground v.1.12,2013-08-09 12:09:00,
2013-08-09 08:14:00,62.0,54.0,29.91,NNE,21,0.0,3.0,75,0.00,,,0.00,Wunderground v.1.12,2013-08-09 12:14:00,
2013-08-09 08:19:00,62.6,54.2,29.91,NNE,21,0.0,1.0,74,0.00,,,0.00,Wunderground v.1.12,2013-08-09 12:19:00,
2013-08-09 08:24:00,63.1,54.3,29.91,NNE,21,0.0,5.0,73,0.00,,,0.00,Wunderground v.1.12,2013-08-09 12:24:00,
2013-08-09 08:29:00,63.5,53.9,29.91,NNE,21,3.0,3.0,71,0.00,,,0.00,Wunderground v.1.12,2013-08-09 12:29:00,
2013-08-09 08:34:00,63.9,53.9,29.91,NNE,21,0.0,1.0,70,0.00,,,0.00,Wunderground v.1.12,2013-08-09 12:34:00,
2013-08-09 08:39:00,64.2,53.8,29.92,NNE,21,0.0,1.0,69,0.00,,,0.00,Wunderground v.1.12,2013-08-09 12:39:00,
2013-08-09 08:44:00,64.5,53.7,29.92,North,359,0.0,4.0,68,0.00,,,0.00,Wunderground v.1.12,2013-08-09 12:44:00,
2013-08-09 08:49:00,64.7,53.9,29.92,North,359,1.0,2.0,68,0.00,,,0.00,Wunderground v.1.12,2013-08-09 12:49:00,
2013-08-09 08:55:00,65.0,54.2,29.92,North,359,0.0,3.0,68,0.00,,,0.00,Wunderground v.1.12,2013-08-09 12:55:00,
2013-08-09 09:00:00,65.3,54.5,29.92,North,359,4.0,4.0,68,0.00,,,0.00,Wunderground v.1.12,2013-08-09 13:00:00,
2013-08-09 09:05:00,65.8,54.1,29.92,North,359,1.0,4.0,66,0.00,,,0.00,Wunderground v.1.12,2013-08-09 13:05:00,
2013-08-09 09:10:00,66.1,54.0,29.92,North,359,0.0,5.0,65,0.00,,,0.00,Wunderground v.1.12,2013-08-09 13:10:00,
2013-08-09 09:15:00,66.3,53.8,29.92,North,1,3.0,4.0,64,0.00,,,0.00,Wunderground v.1.12,2013-08-09 13:15:00,
2013-08-09 09:20:00,66.4,53.8,29.92,North,1,0.0,2.0,64,0.00,,,0.00,Wunderground v.1.12,2013-08-09 13:20:00,
2013-08-09 09:25:00,66.6,54.5,29.92,North,10,0.0,2.0,65,0.00,,,0.00,Wunderground v.1.12,2013-08-09 13:25:00,
2013-08-09 09:30:00,66.6,53.6,29.92,North,10,0.0,3.0,63,0.00,,,0.00,Wunderground v.1.12,2013-08-09 13:30:00,
2013-08-09 09:35:00,66.8,53.8,29.92,North,10,0.0,1.0,63,0.00,,,0.00,Wunderground v.1.12,2013-08-09 13:35:00,
2013-08-09 09:40:00,66.9,53.5,29.92,NNW,335,4.0,5.0,62,0.00,,,0.00,Wunderground v.1.12,2013-08-09 13:40:00,
2013-08-09 09:45:00,67.1,53.6,29.92,NNW,335,0.0,3.0,62,0.00,,,0.00,Wunderground v.1.12,2013-08-09 13:45:00,
2013-08-09 09:50:00,68.3,54.3,29.92,NNW,342,0.0,4.0,61,0.00,,,0.00,Wunderground v.1.12,2013-08-09 13:50:00,
2013-08-09 09:55:00,68.8,54.3,29.92,NW,326,0.0,6.0,60,0.00,,,0.00,Wunderground v.1.12,2013-08-09 13:55:00,
2013-08-09 10:00:00,69.9,54.4,29.92,North,2,0.0,3.0,58,0.00,,,0.00,Wunderground v.1.12,2013-08-09 14:00:00,
2013-08-09 10:05:00,70.1,53.7,29.92,NNW,345,2.0,4.0,56,0.00,,,0.00,Wunderground v.1.12,2013-08-09 14:05:00,
2013-08-09 10:10:00,69.9,54.0,29.91,NNW,345,0.0,2.0,57,0.00,,,0.00,Wunderground v.1.12,2013-08-09 14:10:00,
2013-08-09 10:15:00,69.8,53.4,29.91,NNW,345,0.0,2.0,56,0.00,,,0.00,Wunderground v.1.12,2013-08-09 14:15:00,
2013-08-09 10:20:00,69.6,53.2,29.91,NNW,345,3.0,3.0,56,0.00,,,0.00,Wunderground v.1.12,2013-08-09 14:20:00,
2013-08-09 10:25:00,69.9,53.5,29.92,NNW,345,0.0,1.0,56,0.00,,,0.00,Wunderground v.1.12,2013-08-09 14:25:00,
2013-08-09 10:30:00,70.8,53.3,29.92,NNW,345,0.0,4.0,54,0.00,,,0.00,Wunderground v.1.12,2013-08-09 14:30:00,
2013-08-09 10:35:00,71.5,55.0,29.92,NNW,345,1.0,3.0,56,0.00,,,0.00,Wunderground v.1.12,2013-08-09 14:35:00,
2013-08-09 10:40:00,71.6,55.1,29.92,NW,318,0.0,5.0,56,0.00,,,0.00,Wunderground v.1.12,2013-08-09 14:40:00,
2013-08-09 10:45:00,71.6,54.1,29.92,NW,318,0.0,3.0,54,0.00,,,0.00,Wunderground v.1.12,2013-08-09 14:45:00,
2013-08-09 10:50:00,72.0,53.4,29.92,NNW,339,0.0,5.0,52,0.00,,,0.00,Wunderground v.1.12,2013-08-09 14:50:00,
2013-08-09 10:55:00,72.7,52.4,29.92,NNW,341,3.0,3.0,49,0.00,,,0.00,Wunderground v.1.12,2013-08-09 14:55:00,
2013-08-09 11:00:00,73.0,54.3,29.92,North,7,2.0,3.0,52,0.00,,,0.00,Wunderground v.1.12,2013-08-09 15:00:00,
2013-08-09 11:07:00,72.8,54.1,29.92,NNW,343,0.0,5.0,52,0.00,,,0.00,Wunderground v.1.12,2013-08-09 15:07:00,
2013-08-09 11:12:00,72.8,53.6,29.93,NE,41,3.0,4.0,51,0.00,,,0.00,Wunderground v.1.12,2013-08-09 15:12:00,
2013-08-09 11:17:00,73.9,53.5,29.93,East,79,1.0,3.0,49,0.00,,,0.00,Wunderground v.1.12,2013-08-09 15:17:00,
2013-08-09 11:23:00,74.9,55.0,29.93,ENE,72,0.0,1.0,50,0.00,,,0.00,Wunderground v.1.12,2013-08-09 15:23:00,
2013-08-09 11:28:00,74.9,53.9,29.93,NNW,334,4.0,4.0,48,0.00,,,0.00,Wunderground v.1.12,2013-08-09 15:28:00,
2013-08-09 11:33:00,74.7,54.8,29.93,WNW,302,0.0,3.0,50,0.00,,,0.00,Wunderground v.1.12,2013-08-09 15:33:00,
2013-08-09 11:38:00,74.7,54.8,29.93,WNW,302,0.0,2.0,50,0.00,,,0.00,Wunderground v.1.12,2013-08-09 15:38:00,
2013-08-09 11:43:00,74.7,54.3,29.93,WNW,302,0.0,0.0,49,0.00,,,0.00,Wunderground v.1.12,2013-08-09 15:43:00,
2013-08-09 11:48:00,74.9,53.3,29.93,NNW,334,0.0,1.0,47,0.00,,,0.00,Wunderground v.1.12,2013-08-09 15:48:00,
2013-08-09 11:53:00,74.6,53.6,29.92,NNW,334,0.0,1.0,48,0.00,,,0.00,Wunderground v.1.12,2013-08-09 15:53:00,
2013-08-09 11:58:00,74.7,54.8,29.92,North,354,1.0,3.0,50,0.00,,,0.00,Wunderground v.1.12,2013-08-09 15:58:00,
2013-08-09 12:03:00,75.4,54.9,29.92,WNW,295,1.0,3.0,49,0.00,,,0.00,Wunderground v.1.12,2013-08-09 16:03:00,
2013-08-09 12:08:00,75.8,56.9,29.92,NW,311,0.0,3.0,52,0.00,,,0.00,Wunderground v.1.12,2013-08-09 16:08:00,
2013-08-09 12:13:00,76.1,55.5,29.92,NW,311,3.0,4.0,49,0.00,,,0.00,Wunderground v.1.12,2013-08-09 16:13:00,
2013-08-09 12:18:00,76.7,57.2,29.92,NE,46,1.0,3.0,51,0.00,,,0.00,Wunderground v.1.12,2013-08-09 16:18:00,
2013-08-09 12:23:00,77.0,56.9,29.92,ENE,66,0.0,1.0,50,0.00,,,0.00,Wunderground v.1.12,2013-08-09 16:23:00,
2013-08-09 12:28:00,76.8,56.2,29.92,West,260,5.0,5.0,49,0.00,,,0.00,Wunderground v.1.12,2013-08-09 16:28:00,
2013-08-09 12:33:00,76.8,57.3,29.92,WNW,298,4.0,4.0,51,0.00,,,0.00,Wunderground v.1.12,2013-08-09 16:33:00,
2013-08-09 12:38:00,76.8,55.0,29.92,North,6,0.0,3.0,47,0.00,,,0.00,Wunderground v.1.12,2013-08-09 16:38:00,
2013-08-09 12:43:00,77.2,58.7,29.92,WNW,289,4.0,4.0,53,0.00,,,0.00,Wunderground v.1.12,2013-08-09 16:43:00,
2013-08-09 12:48:00,77.4,55.6,29.92,WSW,248,1.0,2.0,47,0.00,,,0.00,Wunderground v.1.12,2013-08-09 16:48:00,
2013-08-09 12:53:00,77.4,56.2,29.91,NW,325,6.0,6.0,48,0.00,,,0.00,Wunderground v.1.12,2013-08-09 16:53:00,
2013-08-09 12:58:00,77.4,56.2,29.91,WSW,252,0.0,2.0,48,0.00,,,0.00,Wunderground v.1.12,2013-08-09 16:58:00,
2013-08-09 13:03:00,77.6,56.4,29.91,West,270,0.0,2.0,48,0.00,,,0.00,Wunderground v.1.12,2013-08-09 17:03:00,
2013-08-09 13:08:00,77.7,56.4,29.91,WNW,290,6.0,8.0,48,0.00,,,0.00,Wunderground v.1.12,2013-08-09 17:08:00,
2013-08-09 13:13:00,77.6,56.9,29.91,West,271,2.0,3.0,49,0.00,,,0.00,Wunderground v.1.12,2013-08-09 17:13:00,
2013-08-09 13:18:00,77.2,57.1,29.91,West,271,0.0,4.0,50,0.00,,,0.00,Wunderground v.1.12,2013-08-09 17:18:00,
2013-08-09 13:23:00,77.4,56.7,29.91,SW,235,0.0,2.0,49,0.00,,,0.00,Wunderground v.1.12,2013-08-09 17:23:00,
2013-08-09 13:28:00,77.6,55.2,29.91,NW,314,0.0,2.0,46,0.00,,,0.00,Wunderground v.1.12,2013-08-09 17:28:00,
2013-08-09 13:33:00,77.7,54.7,29.91,West,266,0.0,2.0,45,0.00,,,0.00,Wunderground v.1.12,2013-08-09 17:33:00,
2013-08-09 13:38:00,78.1,55.0,29.91,WSW,241,0.0,3.0,45,0.00,,,0.00,Wunderground v.1.12,2013-08-09 17:38:00,
2013-08-09 13:43:00,78.5,56.6,29.91,WNW,287,5.0,6.0,47,0.00,,,0.00,Wunderground v.1.12,2013-08-09 17:43:00,
2013-08-09 13:48:00,78.6,56.1,29.91,NNW,348,5.0,7.0,46,0.00,,,0.00,Wunderground v.1.12,2013-08-09 17:48:00,
2013-08-09 13:53:00,78.8,56.3,29.91,WSW,256,2.0,4.0,46,0.00,,,0.00,Wunderground v.1.12,2013-08-09 17:53:00,
2013-08-09 13:58:00,79.0,56.5,29.91,WNW,293,2.0,5.0,46,0.00,,,0.00,Wunderground v.1.12,2013-08-09 17:58:00,
2013-08-09 14:03:00,79.0,56.5,29.91,NNW,339,4.0,5.0,46,0.00,,,0.00,Wunderground v.1.12,2013-08-09 18:03:00,
2013-08-09 14:08:00,79.2,54.8,29.91,WNW,285,1.0,3.0,43,0.00,,,0.00,Wunderground v.1.12,2013-08-09 18:08:00,
2013-08-09 14:13:00,79.4,56.8,29.91,West,275,3.0,4.0,46,0.00,,,0.00,Wunderground v.1.12,2013-08-09 18:13:00,
2013-08-09 14:18:00,79.4,55.0,29.91,West,260,6.0,6.0,43,0.00,,,0.00,Wunderground v.1.12,2013-08-09 18:18:00,
2013-08-09 14:23:00,79.4,55.6,29.92,SW,225,1.0,6.0,44,0.00,,,0.00,Wunderground v.1.12,2013-08-09 18:23:00,
2013-08-09 14:28:00,79.4,56.8,29.92,NNW,347,1.0,5.0,46,0.00,,,0.00,Wunderground v.1.12,2013-08-09 18:28:00,
2013-08-09 14:33:00,79.8,54.7,29.92,West,264,5.0,6.0,42,0.00,,,0.00,Wunderground v.1.12,2013-08-09 18:33:00,
2013-08-09 14:39:00,79.8,57.2,29.91,WNW,295,7.0,8.0,46,0.00,,,0.00,Wunderground v.1.12,2013-08-09 18:39:00,
2013-08-09 14:44:00,79.6,55.8,29.91,NNW,332,5.0,6.0,44,0.00,,,0.00,Wunderground v.1.12,2013-08-09 18:44:00,
2013-08-09 14:49:00,79.8,57.8,29.91,SW,227,2.0,7.0,47,0.00,,,0.00,Wunderground v.1.12,2013-08-09 18:49:00,
2013-08-09 14:54:00,79.8,55.9,29.91,West,264,5.0,7.0,44,0.00,,,0.00,Wunderground v.1.12,2013-08-09 18:54:00,
2013-08-09 14:59:00,80.1,54.3,29.91,NW,311,2.0,6.0,41,0.00,,,0.00,Wunderground v.1.12,2013-08-09 18:59:00,
2013-08-09 15:04:00,80.1,56.2,29.91,North,350,2.0,8.0,44,0.00,,,0.00,Wunderground v.1.12,2013-08-09 19:04:00,
2013-08-09 15:09:00,80.1,55.6,29.90,WNW,283,4.0,6.0,43,0.00,,,0.00,Wunderground v.1.12,2013-08-09 19:09:00,
2013-08-09 15:14:00,80.3,57.6,29.90,WSW,241,6.0,7.0,46,0.00,,,0.00,Wunderground v.1.12,2013-08-09 19:14:00,
2013-08-09 15:19:00,80.7,56.1,29.90,West,262,2.0,6.0,43,0.00,,,0.00,Wunderground v.1.12,2013-08-09 19:19:00,
2013-08-09 15:24:00,80.3,55.8,29.90,West,262,0.0,4.0,43,0.00,,,0.00,Wunderground v.1.12,2013-08-09 19:24:00,
2013-08-09 15:29:00,80.3,56.4,29.90,NW,324,2.0,3.0,44,0.00,,,0.00,Wunderground v.1.12,2013-08-09 19:29:00,
2013-08-09 15:34:00,79.9,54.8,29.90,WSW,239,5.0,12.0,42,0.00,,,0.00,Wunderground v.1.12,2013-08-09 19:34:00,
2013-08-09 15:39:00,79.8,57.2,29.90,West,266,5.0,6.0,46,0.00,,,0.00,Wunderground v.1.12,2013-08-09 19:39:00,
2013-08-09 15:44:00,79.8,57.2,29.90,West,281,4.0,6.0,46,0.00,,,0.00,Wunderground v.1.12,2013-08-09 19:44:00,
2013-08-09 15:49:00,79.9,56.0,29.90,WNW,293,1.0,3.0,44,0.00,,,0.00,Wunderground v.1.12,2013-08-09 19:49:00,
2013-08-09 15:54:00,80.3,55.1,29.89,WNW,291,3.0,9.0,42,0.00,,,0.00,Wunderground v.1.12,2013-08-09 19:54:00,
2013-08-09 15:59:00,80.5,55.3,29.89,WNW,300,0.0,5.0,42,0.00,,,0.00,Wunderground v.1.12,2013-08-09 19:59:00,
2013-08-09 16:04:00,80.7,56.1,29.89,WNW,290,1.0,4.0,43,0.00,,,0.00,Wunderground v.1.12,2013-08-09 20:04:00,
2013-08-09 16:09:00,80.5,55.3,29.89,West,274,4.0,9.0,42,0.00,,,0.00,Wunderground v.1.12,2013-08-09 20:09:00,
2013-08-09 16:14:00,80.7,54.1,29.89,WNW,286,5.0,7.0,40,0.00,,,0.00,Wunderground v.1.12,2013-08-09 20:14:00,
2013-08-09 16:19:00,81.1,55.2,29.89,West,263,2.0,5.0,41,0.00,,,0.00,Wunderground v.1.12,2013-08-09 20:19:00,
2013-08-09 16:24:00,81.6,54.9,29.89,WSW,252,4.0,8.0,40,0.00,,,0.00,Wunderground v.1.12,2013-08-09 20:24:00,
2013-08-09 16:29:00,81.4,53.4,29.89,West,260,5.0,6.0,38,0.00,,,0.00,Wunderground v.1.12,2013-08-09 20:29:00,
2013-08-09 16:34:00,81.2,55.3,29.89,WNW,282,3.0,6.0,41,0.00,,,0.00,Wunderground v.1.12,2013-08-09 20:34:00,
2013-08-09 16:39:00,81.1,55.8,29.89,West,269,0.0,3.0,42,0.00,,,0.00,Wunderground v.1.12,2013-08-09 20:39:00,
2013-08-09 16:44:00,81.1,54.5,29.89,West,272,6.0,8.0,40,0.00,,,0.00,Wunderground v.1.12,2013-08-09 20:44:00,
2013-08-09 16:49:00,81.4,54.1,29.89,WSW,241,6.0,7.0,39,0.00,,,0.00,Wunderground v.1.12,2013-08-09 20:49:00,
2013-08-09 16:54:00,81.8,54.4,29.89,SW,236,1.0,6.0,39,0.00,,,0.00,Wunderground v.1.12,2013-08-09 20:54:00,
2013-08-09 16:59:00,82.0,53.9,29.89,WSW,244,2.0,7.0,38,0.00,,,0.00,Wunderground v.1.12,2013-08-09 20:59:00,
2013-08-09 17:04:00,81.8,55.1,29.89,West,270,7.0,8.0,40,0.00,,,0.00,Wunderground v.1.12,2013-08-09 21:04:00,
2013-08-09 17:09:00,82.0,54.6,29.89,West,275,5.0,6.0,39,0.00,,,0.00,Wunderground v.1.12,2013-08-09 21:09:00,
2013-08-09 17:14:00,82.4,55.0,29.89,West,262,8.0,9.0,39,0.00,,,0.00,Wunderground v.1.12,2013-08-09 21:14:00,
2013-08-09 17:19:00,82.4,54.2,29.89,West,277,5.0,8.0,38,0.00,,,0.00,Wunderground v.1.12,2013-08-09 21:19:00,
2013-08-09 17:24:00,82.4,55.0,29.89,West,265,5.0,6.0,39,0.00,,,0.00,Wunderground v.1.12,2013-08-09 21:24:00,
2013-08-09 17:29:00,82.4,55.0,29.89,WSW,258,0.0,8.0,39,0.00,,,0.00,Wunderground v.1.12,2013-08-09 21:29:00,
2013-08-09 17:35:00,82.2,55.5,29.89,WSW,252,4.0,9.0,40,0.00,,,0.00,Wunderground v.1.12,2013-08-09 21:35:00,
2013-08-09 17:40:00,82.0,55.3,29.89,West,266,2.0,8.0,40,0.00,,,0.00,Wunderground v.1.12,2013-08-09 21:40:00,
2013-08-09 17:45:00,81.8,55.8,29.89,WNW,283,2.0,9.0,41,0.00,,,0.00,Wunderground v.1.12,2013-08-09 21:45:00,
2013-08-09 17:50:00,81.6,54.9,29.89,WSW,258,6.0,8.0,40,0.00,,,0.00,Wunderground v.1.12,2013-08-09 21:50:00,
2013-08-09 17:55:00,81.4,56.1,29.89,WNW,285,3.0,10.0,42,0.00,,,0.00,Wunderground v.1.12,2013-08-09 21:55:00,
2013-08-09 18:00:00,81.2,55.9,29.89,SW,230,6.0,9.0,42,0.00,,,0.00,Wunderground v.1.12,2013-08-09 22:00:00,
2013-08-09 18:05:00,81.1,57.1,29.89,West,274,2.0,7.0,44,0.00,,,0.00,Wunderground v.1.12,2013-08-09 22:05:00,
2013-08-09 18:10:00,81.2,56.6,29.89,WSW,258,4.0,7.0,43,0.00,,,0.00,Wunderground v.1.12,2013-08-09 22:10:00,
2013-08-09 18:15:00,81.2,57.2,29.89,WNW,283,2.0,9.0,44,0.00,,,0.00,Wunderground v.1.12,2013-08-09 22:15:00,
2013-08-09 18:20:00,81.1,56.5,29.89,NW,319,0.0,9.0,43,0.00,,,0.00,Wunderground v.1.12,2013-08-09 22:20:00,
2013-08-09 18:25:00,80.7,56.1,29.89,West,281,4.0,7.0,43,0.00,,,0.00,Wunderground v.1.12,2013-08-09 22:25:00,
2013-08-09 18:30:00,80.5,57.2,29.89,West,276,4.0,6.0,45,0.00,,,0.00,Wunderground v.1.12,2013-08-09 22:30:00,
2013-08-09 18:35:00,80.1,56.8,29.89,West,260,5.0,7.0,45,0.00,,,0.00,Wunderground v.1.12,2013-08-09 22:35:00,
2013-08-09 18:40:00,79.9,57.3,29.88,West,271,0.0,6.0,46,0.00,,,0.00,Wunderground v.1.12,2013-08-09 22:40:00,
2013-08-09 18:45:00,79.8,57.8,29.88,West,270,4.0,5.0,47,0.00,,,0.00,Wunderground v.1.12,2013-08-09 22:45:00,
2013-08-09 18:50:00,79.8,57.8,29.88,WNW,285,4.0,6.0,47,0.00,,,0.00,Wunderground v.1.12,2013-08-09 22:50:00,
2013-08-09 18:55:00,79.6,58.2,29.88,West,278,4.0,7.0,48,0.00,,,0.00,Wunderground v.1.12,2013-08-09 22:55:00,
2013-08-09 19:00:00,79.2,58.4,29.88,West,266,0.0,5.0,49,0.00,,,0.00,Wunderground v.1.12,2013-08-09 23:00:00,
2013-08-09 19:05:00,79.2,58.4,29.88,West,266,4.0,5.0,49,0.00,,,0.00,Wunderground v.1.12,2013-08-09 23:05:00,
2013-08-09 19:10:00,79.2,59.0,29.88,WNW,300,7.0,7.0,50,0.00,,,0.00,Wunderground v.1.12,2013-08-09 23:10:00,
2013-08-09 19:15:00,79.0,59.3,29.88,West,260,4.0,7.0,51,0.00,,,0.00,Wunderground v.1.12,2013-08-09 23:15:00,
2013-08-09 19:20:00,78.8,58.6,29.88,WNW,289,3.0,6.0,50,0.00,,,0.00,Wunderground v.1.12,2013-08-09 23:20:00,
2013-08-09 19:25:00,78.8,59.1,29.89,West,275,2.0,5.0,51,0.00,,,0.00,Wunderground v.1.12,2013-08-09 23:25:00,
2013-08-09 19:30:00,78.6,59.5,29.89,West,266,0.0,6.0,52,0.00,,,0.00,Wunderground v.1.12,2013-08-09 23:30:00,
2013-08-09 19:35:00,78.5,59.9,29.89,WNW,285,0.0,6.0,53,0.00,,,0.00,Wunderground v.1.12,2013-08-09 23:35:00,
2013-08-09 19:40:00,78.3,59.8,29.89,WSW,254,0.0,7.0,53,0.00,,,0.00,Wunderground v.1.12,2013-08-09 23:40:00,
2013-08-09 19:45:00,78.1,60.6,29.89,West,270,0.0,6.0,55,0.00,,,0.00,Wunderground v.1.12,2013-08-09 23:45:00,
2013-08-09 19:50:00,77.7,60.2,29.89,West,266,2.0,6.0,55,0.00,,,0.00,Wunderground v.1.12,2013-08-09 23:50:00,
2013-08-09 19:55:00,77.6,60.2,29.89,West,266,2.0,5.0,55,0.00,,,0.00,Wunderground v.1.12,2013-08-09 23:55:00,
2013-08-09 20:02:00,77.4,60.5,29.89,West,268,1.0,5.0,56,0.00,,,0.00,Wunderground v.1.12,2013-08-10 00:02:00,
2013-08-09 20:07:00,77.2,60.8,29.89,West,268,0.0,4.0,57,0.00,,,0.00,Wunderground v.1.12,2013-08-10 00:07:00,
2013-08-09 20:12:00,76.8,60.9,29.89,West,265,2.0,5.0,58,0.00,,,0.00,Wunderground v.1.12,2013-08-10 00:12:00,
2013-08-09 20:17:00,76.5,60.6,29.89,West,266,1.0,2.0,58,0.00,,,0.00,Wunderground v.1.12,2013-08-10 00:17:00,
2013-08-09 20:22:00,76.1,60.7,29.90,WSW,249,6.0,6.0,59,0.00,,,0.00,Wunderground v.1.12,2013-08-10 00:22:00,
2013-08-09 20:28:00,76.0,61.1,29.90,West,260,0.0,3.0,60,0.00,,,0.00,Wunderground v.1.12,2013-08-10 00:28:00,
2013-08-09 20:33:00,75.6,60.7,29.90,West,264,4.0,4.0,60,0.00,,,0.00,Wunderground v.1.12,2013-08-10 00:33:00,
2013-08-09 20:38:00,75.3,60.5,29.90,WSW,258,5.0,5.0,60,0.00,,,0.00,Wunderground v.1.12,2013-08-10 00:38:00,
2013-08-09 20:43:00,75.1,60.3,29.90,West,264,4.0,4.0,60,0.00,,,0.00,Wunderground v.1.12,2013-08-10 00:43:00,
2013-08-09 20:48:00,74.9,60.5,29.90,West,269,0.0,2.0,61,0.00,,,0.00,Wunderground v.1.12,2013-08-10 00:48:00,
2013-08-09 20:53:00,74.6,60.7,29.91,West,268,1.0,1.0,62,0.00,,,0.00,Wunderground v.1.12,2013-08-10 00:53:00,
2013-08-09 20:58:00,74.2,60.3,29.91,West,268,1.0,1.0,62,0.00,,,0.00,Wunderground v.1.12,2013-08-10 00:58:00,
2013-08-09 21:03:00,74.0,60.6,29.91,West,268,0.0,1.0,63,0.00,,,0.00,Wunderground v.1.12,2013-08-10 01:03:00,
2013-08-09 21:08:00,73.7,60.3,29.91,West,268,0.0,0.0,63,0.00,,,0.00,Wunderground v.1.12,2013-08-10 01:08:00,
2013-08-09 21:13:00,73.5,60.6,29.91,West,268,0.0,1.0,64,0.00,,,0.00,Wunderground v.1.12,2013-08-10 01:13:00,
2013-08-09 21:18:00,73.2,60.3,29.91,West,268,0.0,0.0,64,0.00,,,0.00,Wunderground v.1.12,2013-08-10 01:18:00,
2013-08-09 21:23:00,73.0,60.1,29.92,West,268,0.0,0.0,64,0.00,,,0.00,Wunderground v.1.12,2013-08-10 01:23:00,
2013-08-09 21:28:00,72.8,60.3,29.92,West,268,1.0,2.0,65,0.00,,,0.00,Wunderground v.1.12,2013-08-10 01:28:00,
2013-08-09 21:33:00,72.5,60.1,29.92,West,268,0.0,1.0,65,0.00,,,0.00,Wunderground v.1.12,2013-08-10 01:33:00,
2013-08-09 21:38:00,72.3,60.3,29.92,West,268,0.0,0.0,66,0.00,,,0.00,Wunderground v.1.12,2013-08-10 01:38:00,
2013-08-09 21:43:00,72.1,60.1,29.92,West,268,0.0,0.0,66,0.00,,,0.00,Wunderground v.1.12,2013-08-10 01:43:00,
2013-08-09 21:48:00,72.0,60.4,29.92,West,268,0.0,0.0,67,0.00,,,0.00,Wunderground v.1.12,2013-08-10 01:48:00,
2013-08-09 21:53:00,71.6,60.1,29.92,West,268,0.0,0.0,67,0.00,,,0.00,Wunderground v.1.12,2013-08-10 01:53:00,
2013-08-09 21:58:00,71.5,60.0,29.92,West,268,0.0,0.0,67,0.00,,,0.00,Wunderground v.1.12,2013-08-10 01:58:00,
2013-08-09 22:03:00,71.3,60.2,29.92,West,270,1.0,1.0,68,0.00,,,0.00,Wunderground v.1.12,2013-08-10 02:03:00,
2013-08-09 22:08:00,71.1,60.0,29.93,West,270,0.0,2.0,68,0.00,,,0.00,Wunderground v.1.12,2013-08-10 02:08:00,
2013-08-09 22:13:00,71.1,60.0,29.93,West,270,0.0,1.0,68,0.00,,,0.00,Wunderground v.1.12,2013-08-10 02:13:00,
2013-08-09 22:18:00,70.9,59.8,29.93,West,268,4.0,4.0,68,0.00,,,0.00,Wunderground v.1.12,2013-08-10 02:18:00,
2013-08-09 22:23:00,70.9,60.2,29.93,West,267,0.0,2.0,69,0.00,,,0.00,Wunderground v.1.12,2013-08-10 02:23:00,
2013-08-09 22:28:00,70.8,60.1,29.93,West,267,0.0,2.0,69,0.00,,,0.00,Wunderground v.1.12,2013-08-10 02:28:00,
2013-08-09 22:33:00,70.8,60.1,29.93,West,267,0.0,2.0,69,0.00,,,0.00,Wunderground v.1.12,2013-08-10 02:33:00,
2013-08-09 22:38:00,70.6,60.3,29.93,West,266,5.0,5.0,70,0.00,,,0.00,Wunderground v.1.12,2013-08-10 02:38:00,
2013-08-09 22:43:00,70.4,60.1,29.93,West,266,1.0,4.0,70,0.00,,,0.00,Wunderground v.1.12,2013-08-10 02:43:00,
2013-08-09 22:48:00,70.3,60.1,29.93,West,267,0.0,2.0,70,0.00,,,0.00,Wunderground v.1.12,2013-08-10 02:48:00,
2013-08-09 22:53:00,70.3,60.4,29.93,West,267,1.0,2.0,71,0.00,,,0.00,Wunderground v.1.12,2013-08-10 02:53:00,
2013-08-09 22:59:00,70.1,60.3,29.93,West,267,2.0,2.0,71,0.00,,,0.00,Wunderground v.1.12,2013-08-10 02:59:00,
2013-08-09 23:04:00,69.8,60.0,29.93,West,267,0.0,2.0,71,0.00,,,0.00,Wunderground v.1.12,2013-08-10 03:04:00,
2013-08-09 23:09:00,69.6,60.2,29.94,West,267,0.0,1.0,72,0.00,,,0.00,Wunderground v.1.12,2013-08-10 03:09:00,
2013-08-09 23:14:00,69.4,60.0,29.94,West,267,1.0,1.0,72,0.00,,,0.00,Wunderground v.1.12,2013-08-10 03:14:00,
2013-08-09 23:19:00,69.3,60.3,29.94,West,267,1.0,2.0,73,0.00,,,0.00,Wunderground v.1.12,2013-08-10 03:19:00,
2013-08-09 23:24:00,69.1,60.1,29.94,West,267,1.0,2.0,73,0.00,,,0.00,Wunderground v.1.12,2013-08-10 03:24:00,
2013-08-09 23:29:00,68.9,60.3,29.94,West,267,1.0,1.0,74,0.00,,,0.00,Wunderground v.1.12,2013-08-10 03:29:00,
2013-08-09 23:34:00,68.9,60.3,29.94,West,272,1.0,1.0,74,0.00,,,0.00,Wunderground v.1.12,2013-08-10 03:34:00,
2013-08-09 23:39:00,68.8,60.6,29.94,West,273,1.0,2.0,75,0.00,,,0.00,Wunderground v.1.12,2013-08-10 03:39:00,
2013-08-09 23:44:00,68.6,60.4,29.94,West,273,0.0,3.0,75,0.00,,,0.00,Wunderground v.1.12,2013-08-10 03:44:00,
2013-08-09 23:49:00,68.6,60.4,29.94,West,273,1.0,3.0,75,0.00,,,0.00,Wunderground v.1.12,2013-08-10 03:49:00,
2013-08-09 23:54:00,68.4,60.5,29.95,West,273,0.0,2.0,76,0.00,,,0.00,Wunderground v.1.12,2013-08-10 03:54:00,